Date,TemperatureHighF,TemperatureAvgF,TemperatureLowF,DewpointHighF,DewpointAvgF,DewpointLowF,HumidityHigh,HumidityAvg,HumidityLow,PressureMaxIn,PressureMinIn,WindSpeedMaxMPH,WindSpeedAvgMPH,GustSpeedMaxMPH,PrecipitationSumIn
2013-1-1,32.9,25.3,11.9,31.0,18.9,4.0,90,74,50,29.45,29.27,17,6,17,0.01
2013-1-2,17.6,10.6,3.6,11.0,5.1,0.0,85,72,56,29.62,29.45,24,6,25,0.00
2013-1-3,20.5,11.0,2.2,11.0,5.1,0.0,87,72,55,29.70,29.58,11,2,12,0.00
2013-1-4,34.9,24.6,4.6,29.0,20.4,4.0,93,82,70,29.58,29.40,15,3,15,0.00
2013-1-5,34.8,27.3,10.8,31.0,19.0,8.0,85,68,48,29.94,29.39,24,4,24,0.00
2013-1-6,29.6,19.9,9.1,29.0,18.0,8.0,94,91,77,29.90,29.60,6,1,6,0.00
2013-1-7,21.9,14.6,4.3,21.0,11.5,4.0,93,84,63,30.06,29.63,13,2,14,0.00
2013-1-8,41.9,34.4,18.4,35.0,29.4,16.0,94,81,63,30.02,29.90,27,4,27,0.34
2013-1-9,41.6,34.5,22.6,40.0,31.7,21.0,96,88,69,30.10,29.56,14,2,16,0.29
2013-1-10,42.7,37.4,28.5,36.0,28.7,23.0,86,70,54,30.18,29.56,21,4,24,0.02
2013-1-11,36.7,29.5,23.1,28.0,21.4,16.0,88,70,46,30.22,29.97,10,1,13,0.00
2013-1-12,42.7,38.4,31.1,42.0,34.9,24.0,96,86,75,29.98,29.84,9,1,10,0.00
2013-1-13,45.9,43.1,41.2,45.0,42.1,40.0,97,96,96,29.88,29.70,13,2,13,0.02
2013-1-14,50.5,45.2,35.8,50.0,42.8,26.0,97,92,68,29.90,29.60,14,2,14,0.01
2013-1-15,36.7,31.7,26.6,29.0,24.9,21.0,94,75,55,30.03,29.89,8,1,8,0.00
2013-1-16,36.1,31.5,26.2,35.0,28.4,18.0,95,87,61,29.96,29.45,17,1,17,0.37
2013-1-17,39.4,30.2,11.8,37.0,23.1,-13.0,96,75,34,29.80,29.43,16,4,16,0.06
2013-1-18,19.5,11.3,3.3,8.0,-0.2,-6.0,63,53,44,30.04,29.75,18,4,20,0.00
2013-1-19,33.7,29.2,19.2,33.0,26.0,8.0,95,88,51,30.03,29.60,15,3,16,0.03
2013-1-20,47.6,39.7,23.8,43.0,32.9,11.0,96,78,46,29.60,29.19,27,5,27,0.04
2013-1-21,23.7,17.8,12.9,16.0,6.4,0.0,93,56,37,29.70,29.46,16,4,22,0.00
2013-1-22,15.5,11.1,6.6,14.0,3.9,-6.0,93,68,47,29.60,29.40,16,2,16,0.00
2013-1-23,9.7,3.0,-1.7,0.0,-5.2,-13.0,76,62,48,29.66,29.58,19,6,19,0.00
2013-1-24,10.8,3.5,-3.1,0.0,-3.8,-6.0,79,65,47,29.64,29.47,20,5,20,0.00
2013-1-25,20.8,11.6,3.2,8.0,3.5,0.0,83,64,43,29.77,29.62,17,5,19,0.00
2013-1-26,19.2,11.5,4.1,4.0,0.9,-6.0,69,56,40,29.70,29.58,19,2,19,0.00
2013-1-27,22.4,14.6,7.4,14.0,6.5,0.0,76,65,52,30.00,29.67,21,4,21,0.00
2013-1-28,24.8,17.8,10.9,21.0,6.6,0.0,93,60,34,30.03,29.73,10,1,11,0.00
2013-1-29,35.5,24.8,15.9,31.0,20.2,14.0,93,82,62,29.90,29.71,4,1,4,0.00
2013-1-30,50.4,44.8,34.7,50.0,43.7,31.0,97,96,86,29.86,29.23,27,5,27,0.21
2013-1-31,53.6,44.7,32.7,53.0,39.3,18.0,97,82,52,29.24,28.61,29,7,34,0.03
2013-2-1,32.9,24.2,12.9,21.0,10.6,4.0,68,53,43,29.62,29.06,32,6,32,0.00
2013-2-2,24.9,17.7,9.9,21.0,8.4,0.0,93,64,42,29.85,29.62,12,2,12,0.00
2013-2-3,31.6,22.5,18.9,24.0,19.6,16.0,93,87,72,29.72,29.29,13,1,13,0.04
2013-2-4,27.5,20.9,14.9,18.0,12.0,0.0,91,65,43,29.46,29.20,25,6,25,0.00
2013-2-5,21.9,14.3,9.5,4.0,0.7,-6.0,68,50,33,29.68,29.46,17,3,17,0.00
2013-2-6,33.9,22.4,10.8,31.0,16.0,4.0,95,75,45,29.86,29.59,14,2,16,0.09
2013-2-7,17.4,8.7,1.2,8.0,-3.6,-13.0,67,51,32,30.22,29.86,14,2,14,0.00
2013-2-8,19.1,11.2,2.1,18.0,7.0,-6.0,93,81,52,30.23,29.52,22,2,24,0.00
2013-2-9,16.6,13.0,8.8,16.0,11.3,8.0,93,92,88,29.66,29.25,31,5,31,0.00
2013-2-10,32.9,21.0,12.2,18.0,11.4,4.0,92,63,42,30.01,29.66,22,2,22,0.00
2013-2-11,42.7,31.1,10.3,42.0,28.4,4.0,96,88,65,29.98,29.27,21,3,21,0.36
2013-2-12,41.2,36.6,32.6,38.0,33.0,31.0,96,86,71,29.43,29.18,12,3,12,0.04
2013-2-13,43.4,34.1,28.0,32.0,29.0,26.0,95,81,52,29.50,29.39,15,2,15,0.00
2013-2-14,41.2,31.4,22.7,29.0,23.2,18.0,94,71,43,29.67,29.38,11,2,11,0.00
2013-2-15,44.9,36.3,21.6,39.0,33.5,18.0,96,89,76,29.74,29.64,16,2,17,0.00
2013-2-16,39.4,32.0,25.6,38.0,30.5,24.0,96,94,85,29.65,29.41,13,2,13,0.00
2013-2-17,25.7,21.3,17.4,24.0,19.2,14.0,94,91,78,29.42,28.64,28,5,28,0.00
2013-2-18,29.2,21.9,16.8,16.0,10.4,8.0,91,58,43,29.57,28.92,26,8,26,0.02
2013-2-19,42.3,30.4,19.7,41.0,19.7,4.0,96,64,29,29.78,29.42,21,4,21,0.21
2013-2-20,44.6,37.0,28.7,43.0,32.1,21.0,96,82,62,29.42,29.11,36,5,36,0.48
2013-2-21,33.7,27.8,22.9,31.0,21.9,14.0,95,76,58,29.76,29.25,16,3,16,0.00
2013-2-22,40.6,30.7,23.2,28.0,23.2,18.0,88,73,45,30.06,29.76,9,2,15,0.00
2013-2-23,33.2,29.9,22.9,29.0,26.3,21.0,93,85,77,30.03,29.75,14,2,14,0.00
2013-2-24,32.7,29.4,26.7,31.0,28.0,23.0,95,93,74,29.76,29.46,11,1,11,0.03
2013-2-25,39.8,25.3,19.1,26.0,19.0,11.0,94,77,29,29.89,29.53,11,2,11,0.08
2013-2-26,44.5,30.2,18.9,31.0,23.4,14.0,94,75,51,30.08,29.89,8,1,8,0.00
2013-2-27,42.5,33.3,24.7,33.0,29.4,24.0,95,85,56,29.96,29.39,25,2,25,0.00
2013-2-28,40.4,37.0,32.7,39.0,36.0,32.0,96,96,95,29.41,29.19,27,4,27,1.01
2013-3-1,33.3,31.5,30.3,32.0,30.0,29.0,95,95,94,29.30,29.18,12,2,12,0.14
2013-3-2,36.1,32.7,30.3,35.0,31.4,29.0,95,95,94,29.29,29.25,11,1,11,0.18
2013-3-3,36.8,35.0,33.2,36.0,33.7,32.0,95,95,95,29.27,29.16,5,1,5,0.01
2013-3-4,34.9,32.4,31.0,33.0,31.3,29.0,95,95,95,29.31,29.11,10,2,10,0.13
2013-3-5,46.2,35.7,32.2,41.0,34.3,31.0,96,94,80,29.82,29.31,11,2,11,0.32
2013-3-6,38.5,33.2,30.8,35.0,31.0,26.0,95,90,80,29.98,29.82,14,2,14,0.02
2013-3-7,37.9,33.8,31.7,29.0,27.3,26.0,85,75,64,29.92,29.76,18,2,18,0.00
2013-3-8,49.4,36.2,29.8,28.0,25.2,23.0,84,66,37,29.88,29.72,17,3,17,0.00
2013-3-9,45.4,32.9,26.4,29.0,25.5,23.0,94,75,46,30.05,29.85,12,2,12,0.00
2013-3-10,38.5,31.1,27.1,32.0,27.2,24.0,94,85,66,30.12,30.00,7,1,9,0.00
2013-3-11,42.6,38.6,33.6,39.0,36.8,32.0,96,92,82,30.03,29.91,16,3,16,0.00
2013-3-12,50.1,45.2,40.5,47.0,43.6,40.0,97,94,84,29.92,29.60,26,6,27,0.32
2013-3-13,48.9,43.2,32.0,48.0,42.2,31.0,97,96,94,29.60,29.36,29,3,30,1.04
2013-3-14,43.9,33.3,24.8,35.0,28.7,21.0,95,83,51,29.41,29.32,14,2,14,0.01
2013-3-15,34.3,24.8,18.4,23.0,16.0,11.0,93,68,38,29.40,29.26,19,3,19,0.00
2013-3-16,34.4,28.0,21.5,24.0,17.2,14.0,92,63,41,29.54,29.26,12,2,12,0.00
2013-3-17,30.2,23.4,17.1,14.0,9.5,0.0,73,52,34,29.92,29.54,17,3,20,0.00
2013-3-18,33.1,22.8,14.6,16.0,6.8,0.0,62,46,29,30.08,29.92,14,3,14,0.00
2013-3-19,27.2,25.4,24.4,26.0,21.5,11.0,94,84,52,29.97,29.29,16,2,20,0.00
2013-3-20,33.5,26.1,18.5,29.0,22.8,18.0,94,86,70,29.38,29.19,20,4,20,0.07
2013-3-21,38.5,32.2,27.5,31.0,25.0,21.0,95,74,52,29.49,29.27,17,2,17,0.20
2013-3-22,39.2,31.3,20.9,29.0,22.9,16.0,94,72,43,29.30,29.22,10,2,11,0.10
2013-3-23,38.8,33.1,26.3,28.0,23.8,18.0,79,67,51,29.26,29.12,19,6,19,0.01
2013-3-24,45.8,36.8,27.2,31.0,28.0,26.0,94,70,49,29.47,29.25,15,2,15,0.00
2013-3-25,47.0,35.7,24.7,35.0,29.2,24.0,95,78,52,29.48,29.28,10,1,11,0.00
2013-3-26,49.5,37.2,27.8,35.0,27.9,23.0,95,70,41,29.37,29.18,14,2,14,0.00
2013-3-27,39.9,35.9,29.9,39.0,34.7,29.0,96,95,90,29.53,29.34,10,1,10,0.22
2013-3-28,49.5,38.5,30.7,41.0,35.0,29.0,96,88,62,29.64,29.52,9,1,10,0.01
2013-3-29,53.3,42.7,32.1,42.0,36.6,31.0,96,80,55,29.72,29.61,9,1,9,0.00
2013-3-30,53.9,40.7,29.0,37.0,31.6,23.0,95,74,29,29.78,29.67,8,2,8,0.00
2013-3-31,50.5,38.8,25.8,41.0,26.9,18.0,96,65,28,29.88,29.63,13,2,14,0.00
2013-4-1,45.9,41.4,34.9,45.0,40.1,31.0,97,95,88,29.63,29.21,26,3,26,1.05
2013-4-2,36.7,32.0,27.7,33.0,18.3,11.0,93,56,36,29.47,29.31,22,6,22,0.01
2013-4-3,39.9,32.9,28.2,23.0,19.0,14.0,74,55,42,29.65,29.43,24,8,24,0.00
2013-4-4,47.2,36.9,29.6,39.0,22.6,11.0,96,57,26,29.88,29.64,19,4,19,0.00
2013-4-5,48.0,41.7,36.7,41.0,37.6,28.0,96,86,66,29.69,29.39,19,3,19,0.00
2013-4-6,39.6,32.8,26.5,28.0,16.5,8.0,73,50,26,30.01,29.44,19,4,20,0.00
2013-4-7,43.6,34.8,22.3,40.0,26.9,11.0,96,73,46,30.05,29.70,22,4,25,0.01
2013-4-8,58.9,47.6,37.4,47.0,39.7,36.0,97,77,44,29.88,29.62,19,2,19,0.00
2013-4-9,42.9,40.1,35.0,42.0,38.3,33.0,96,92,81,29.88,29.64,13,1,16,0.22
2013-4-10,54.4,42.7,38.9,50.0,28.9,8.0,88,59,22,29.73,29.63,11,1,11,0.07
2013-4-11,50.6,42.1,34.1,37.0,22.9,14.0,86,47,28,29.89,29.59,12,2,14,0.00
2013-4-12,39.6,33.7,29.6,35.0,20.8,14.0,85,58,44,29.96,29.62,12,1,15,0.19
2013-4-13,40.9,36.4,32.5,31.0,13.6,4.0,64,38,23,29.64,29.46,8,1,11,0.23
2013-4-14,49.6,40.5,36.3,39.0,9.3,-6.0,67,28,10,29.86,29.63,7,1,7,0.12
2013-4-15,51.5,39.3,32.7,29.0,-7.7,-40.0,46,16,1,30.16,29.86,9,2,13,0.00
2013-4-16,47.9,42.7,35.6,21.0,-24.2,-40.0,32,7,1,30.16,29.72,24,4,24,0.12
2013-4-17,59.7,49.0,38.5,39.0,14.0,-40.0,61,34,9,30.08,29.71,17,2,17,0.00
2013-4-18,50.0,40.8,28.5,37.0,24.8,4.0,76,53,20,30.25,29.95,19,2,19,0.00
2013-4-19,54.4,49.5,44.7,31.0,-31.2,-40.0,57,6,1,29.96,29.51,27,5,27,0.00
2013-4-20,53.7,49.4,42.3,49.0,-0.5,-40.0,90,37,41,29.86,29.39,26,3,26,0.26
2013-4-21,51.5,41.2,28.7,39.0,28.9,16.0,95,65,25,30.39,29.86,11,2,12,0.00
2013-4-22,49.5,37.9,25.9,42.0,29.1,8.0,96,72,35,30.60,30.39,14,2,14,0.00
2013-4-23,43.6,37.8,28.4,42.0,12.3,-40.0,94,45,2,30.39,29.94,16,2,16,0.11
2013-4-24,54.4,47.3,41.9,-23.0,-39.9,-40.0,2,0,1,29.94,29.54,12,2,12,0.91
2013-4-25,62.3,49.8,38.6,54.5,1.1,-40.0,96,36,10,30.00,29.60,19,2,19,0.11
2013-4-26,58.3,45.6,32.8,42.0,35.7,21.0,96,70,45,30.24,30.00,10,2,10,0.00
2013-4-27,56.9,43.5,29.7,44.0,29.7,4.0,96,60,27,30.22,30.05,10,2,10,0.00
2013-4-28,63.1,47.9,35.3,51.0,39.2,24.0,97,74,45,30.16,30.01,12,2,12,0.00
2013-4-29,63.6,49.0,35.3,51.0,36.0,16.0,96,63,28,30.12,29.97,13,2,13,0.00
2013-4-30,65.3,49.8,35.3,53.5,29.4,-23.0,96,50,5,30.18,30.00,11,2,11,0.00
2013-5-1,64.5,50.2,35.8,50.0,36.5,21.0,97,64,27,30.31,30.12,13,2,14,0.00
2013-5-2,62.9,49.6,38.2,52.0,43.2,32.0,97,80,48,30.32,30.16,13,1,13,0.00
2013-5-3,63.4,49.5,38.2,51.0,44.5,32.0,97,84,56,30.34,30.16,11,2,12,0.00
2013-5-4,57.3,46.2,35.2,46.0,36.4,16.0,97,70,44,30.20,30.06,16,2,16,0.00
2013-5-5,57.1,45.8,33.5,47.0,35.1,14.0,97,67,33,30.14,30.02,14,2,14,0.00
2013-5-6,58.6,48.1,40.8,54.0,33.4,8.0,97,60,22,30.11,29.94,16,2,16,0.00
2013-5-7,63.9,51.1,41.9,58.0,12.7,-40.0,94,38,1,30.00,29.91,16,2,16,0.00
2013-5-8,71.9,57.7,48.9,66.7,4.3,-40.0,91,35,1,30.14,29.95,16,2,16,0.00
2013-5-9,60.4,54.6,50.0,16.0,-23.9,-40.0,21,4,1,29.96,29.72,11,2,13,0.29
2013-5-10,64.0,54.4,49.1,58.0,-13.2,-40.0,83,17,1,29.79,29.68,13,2,14,0.01
2013-5-11,57.2,52.5,48.4,51.0,-31.9,-40.0,81,5,1,29.76,29.54,22,3,22,0.17
2013-5-12,54.6,52.3,47.7,-40.0,-40.0,-40.0,0,0,100,29.54,29.34,16,2,17,0.38
2013-5-13,54.2,48.0,41.2,47.0,17.3,-40.0,97,54,5,29.74,29.47,22,3,24,0.02
2013-5-14,57.4,48.2,39.4,47.5,39.9,14.0,96,75,29,29.77,29.70,10,1,10,0.00
2013-5-15,59.6,48.8,35.7,48.0,23.0,-40.0,95,48,2,29.80,29.48,21,3,22,0.27
2013-5-16,67.2,55.6,47.4,54.0,0.8,-40.0,68,26,1,29.56,29.37,19,2,21,0.00
2013-5-17,60.9,52.1,41.5,49.0,27.2,-40.0,76,46,1,29.94,29.56,17,2,17,0.00
2013-5-18,58.7,47.4,38.3,48.0,5.9,-40.0,70,35,1,30.16,29.93,15,2,15,0.00
2013-5-19,60.8,49.5,38.3,50.5,-0.6,-40.0,74,30,1,30.22,30.04,14,2,14,0.00
2013-5-20,60.1,52.6,49.1,-23.0,-39.2,-40.0,0,0,100,30.04,29.75,26,2,26,0.75
2013-5-21,51.1,49.0,47.9,-40.0,-40.0,-40.0,0,0,100,29.86,29.77,9,1,9,0.11
2013-5-22,53.8,49.7,47.2,-40.0,-40.0,-40.0,0,0,100,29.84,29.71,16,2,17,0.44
2013-5-23,61.6,53.2,46.8,-23.0,-38.6,-40.0,0,0,100,29.74,29.66,17,2,17,0.01
2013-5-24,59.2,55.9,49.9,-23.0,-39.3,-40.0,0,0,100,29.67,29.50,27,3,27,0.20
2013-5-25,51.9,50.3,48.2,-40.0,-40.0,-40.0,0,0,100,29.60,29.47,21,2,21,0.34
2013-5-26,51.6,47.8,45.4,-40.0,-40.0,-40.0,0,0,100,29.67,29.39,16,2,16,0.36
2013-5-27,65.3,51.5,43.1,50.5,13.5,-40.0,79,36,1,29.92,29.66,13,2,13,0.00
2013-5-28,67.9,54.6,38.8,53.5,21.2,-40.0,76,42,1,30.09,29.91,16,2,16,0.00
2013-5-29,55.2,51.7,46.5,40.0,-36.5,-40.0,64,2,12,30.03,29.79,19,2,20,0.29
2013-5-30,77.8,62.1,50.7,71.0,1.4,-40.0,80,25,1,29.88,29.75,11,1,11,0.00
2013-5-31,82.8,69.5,55.7,70.5,32.8,-40.0,81,47,23,29.90,29.74,13,2,13,0.00
2013-6-1,81.9,68.5,58.6,69.0,19.8,-23.0,66,29,1,29.82,29.65,14,2,15,0.00
2013-6-2,73.4,64.2,58.2,54.5,2.2,-40.0,54,14,2,29.69,29.57,19,3,19,0.02
2013-6-3,66.9,59.5,56.5,8.0,-31.9,-40.0,9,0,1,29.66,29.55,16,3,16,0.05
2013-6-4,65.1,58.7,51.0,56.0,22.9,-40.0,89,49,3,29.80,29.54,14,2,14,0.00
2013-6-5,67.1,57.3,46.1,54.5,44.4,-23.0,88,65,3,29.97,29.79,16,2,16,0.00
2013-6-6,70.5,58.2,45.4,60.0,19.8,-40.0,87,39,1,30.07,29.93,12,2,12,0.00
2013-6-7,63.1,55.9,51.8,56.0,15.1,-40.0,88,37,2,29.98,29.79,11,2,12,0.36
2013-6-8,62.4,57.3,53.1,46.0,-28.9,-40.0,55,3,1,29.79,29.44,16,2,19,1.55
2013-6-9,64.7,57.1,51.1,60.0,7.7,-40.0,88,37,3,29.93,29.76,12,1,12,0.00
2013-6-10,67.9,58.3,51.9,62.5,17.3,-40.0,91,48,1,30.06,29.86,11,2,11,0.00
2013-6-11,55.2,53.6,51.3,-40.0,-40.0,-40.0,0,0,100,29.87,29.31,20,2,20,0.59
2013-6-12,58.0,54.4,50.8,-40.0,-40.0,-40.0,0,0,100,29.49,29.25,11,2,11,0.53
2013-6-13,68.9,57.9,51.9,61.5,13.6,-40.0,83,39,1,29.63,29.49,10,2,11,0.19
2013-6-14,66.7,56.5,51.4,60.0,19.1,-40.0,92,49,3,29.54,29.47,9,1,10,0.00
2013-6-15,73.6,61.3,48.8,58.0,33.6,-40.0,92,50,1,29.70,29.49,11,2,12,0.00
2013-6-16,75.1,62.5,53.6,60.0,49.3,26.0,91,64,33,29.78,29.55,14,2,14,0.01
2013-6-17,75.2,62.7,55.5,66.0,4.6,-40.0,90,29,1,29.69,29.52,17,2,17,0.44
2013-6-18,66.6,60.5,55.4,61.5,17.1,-40.0,88,45,1,29.81,29.64,8,1,8,0.00
2013-6-19,75.2,62.9,51.0,57.0,27.6,-40.0,89,44,2,29.90,29.70,12,2,12,0.00
2013-6-20,75.1,61.3,47.7,63.0,36.0,-40.0,87,51,1,30.12,29.90,12,2,12,0.00
2013-6-21,76.7,64.0,56.1,66.0,30.0,-40.0,89,47,1,30.08,29.99,15,2,15,0.00
2013-6-22,75.3,64.0,56.7,70.0,44.6,-40.0,87,58,1,30.06,29.95,7,1,7,0.00
2013-6-23,71.6,62.1,59.3,66.7,5.2,-23.0,85,19,3,29.97,29.78,11,2,11,0.07
2013-6-24,86.0,72.7,61.4,76.0,37.3,-23.0,85,48,3,29.80,29.67,9,2,9,0.01
2013-6-25,85.8,73.7,65.2,73.3,47.3,-23.0,85,52,4,29.75,29.55,14,2,14,0.15
2013-6-26,71.8,64.2,57.9,8.0,-23.2,-40.0,10,0,1,29.72,29.56,9,1,9,0.11
2013-6-27,62.9,57.9,54.9,54.5,-11.5,-40.0,76,17,2,29.74,29.68,6,1,6,0.00
2013-6-28,62.2,59.0,55.8,-23.0,-29.1,-40.0,0,0,100,29.70,29.45,20,3,25,0.58
2013-6-29,61.2,60.5,60.1,-23.0,-23.0,-23.0,0,0,100,29.57,29.48,8,2,8,0.00
2013-6-30,66.6,62.1,59.5,-23.0,-23.0,-23.0,0,0,100,29.80,29.56,12,2,12,0.00
2013-7-1,74.4,65.2,61.3,56.5,-11.9,-23.0,56,6,1,29.96,29.78,9,1,9,0.09
2013-7-2,64.4,62.9,59.7,-23.0,-23.0,-23.0,0,0,100,30.04,29.95,6,1,6,0.17
2013-7-9,59.7,59.7,59.7,-23.0,-23.0,-23.0,0,0,100,30.05,30.05,4,4,6,0.00
2013-7-16,90.3,81.9,71.9,73.0,67.9,61.0,81,64,49,30.02,29.98,9,2,9,0.00
2013-7-17,77.5,70.9,65.7,70.0,55.1,-23.0,85,68,2,30.04,29.73,9,3,9,0.27
2013-7-18,85.1,73.3,66.5,73.0,32.9,-23.0,93,44,3,29.87,29.72,9,1,9,0.01
2013-7-19,81.8,71.1,66.0,75.0,17.1,-23.0,84,29,1,29.79,29.47,9,3,9,0.09
2013-7-20,83.1,74.3,65.8,75.0,28.0,-23.0,83,38,1,29.57,29.41,9,2,9,0.08
2013-7-21,74.7,66.6,60.1,65.0,52.3,-23.0,89,66,9,29.84,29.57,9,2,9,0.00
2013-7-22,75.8,65.2,56.3,66.0,35.2,-40.0,91,54,1,29.90,29.76,9,1,9,0.00
2013-7-23,68.4,65.2,62.6,50.0,-20.4,-23.0,63,2,1,29.76,29.33,9,1,9,1.28
2013-7-24,78.8,69.0,61.7,74.0,29.9,-23.0,94,48,19,29.76,29.35,9,1,9,0.00
2013-7-25,74.9,63.4,56.3,65.0,47.9,-23.0,98,75,3,29.95,29.76,9,1,9,0.04
2013-7-26,69.3,65.0,61.1,-23.0,-23.0,-23.0,0,0,100,29.88,29.63,9,1,9,1.93
2013-7-27,76.8,66.7,60.3,70.0,22.0,-23.0,86,37,2,29.86,29.62,9,2,9,0.05
2013-7-28,70.1,65.1,61.9,59.0,-15.5,-23.0,73,4,1,29.89,29.82,8,1,8,0.30
2013-7-29,72.7,65.3,59.6,67.0,1.3,-23.0,85,18,2,29.89,29.79,7,1,7,0.01
2013-7-30,78.9,68.0,61.0,72.0,23.4,-23.0,92,38,2,29.87,29.81,9,1,9,0.00
2013-7-31,78.6,66.8,56.8,66.0,32.0,-40.0,90,48,12,29.94,29.81,9,2,9,0.00
2013-8-1,77.8,68.2,61.2,70.0,29.6,-23.0,90,44,1,29.88,29.72,16,2,16,0.00
2013-8-2,66.4,64.1,62.2,-23.0,-23.0,-23.0,0,0,100,29.72,29.58,11,2,11,0.70
2013-8-3,72.6,64.2,58.1,65.0,28.1,-40.0,98,53,4,29.63,29.55,11,1,12,0.09
2013-8-4,76.4,65.7,57.1,66.0,58.9,56.0,98,82,51,29.61,29.52,12,2,12,0.01
2013-8-5,71.7,62.8,54.9,58.0,54.1,49.0,98,76,49,29.78,29.56,10,2,12,0.00
2013-8-6,75.4,64.5,52.3,55.0,51.9,48.0,96,66,40,29.96,29.77,16,2,16,0.00
2013-8-7,75.7,64.9,53.6,60.0,55.0,47.0,98,74,40,30.05,29.93,9,2,9,0.00
2013-8-8,65.3,62.8,60.3,64.0,61.9,59.0,98,98,91,29.95,29.85,13,3,16,0.34
2013-8-9,67.8,65.6,64.1,67.0,64.8,63.0,99,98,98,29.86,29.49,23,3,23,1.11
2013-8-10,77.7,69.2,59.2,72.0,59.0,47.0,99,74,36,29.75,29.50,14,2,14,0.00
2013-8-11,75.3,64.9,54.8,56.0,53.4,50.0,95,69,44,29.85,29.74,12,2,12,0.00
2013-8-12,78.9,67.2,58.7,61.0,57.7,53.0,98,75,42,29.82,29.71,14,2,14,0.00
2013-8-13,71.8,65.0,59.3,67.0,63.4,58.0,99,96,83,29.71,29.52,10,1,10,0.00
2013-8-14,72.3,65.1,59.9,66.0,60.9,50.0,98,88,60,29.61,29.43,12,2,14,0.00
2013-8-15,74.4,63.8,52.5,59.0,53.8,50.0,97,73,45,29.87,29.61,12,2,13,0.00
2013-8-16,77.1,65.4,54.8,64.0,56.4,50.0,98,77,40,29.98,29.85,12,2,12,0.00
2013-8-17,78.3,66.0,53.9,63.0,55.2,50.0,98,73,39,30.09,29.96,7,1,7,0.00
2013-8-18,76.2,65.1,54.7,62.0,57.7,53.0,98,80,46,30.08,29.83,10,2,10,0.00
2013-8-19,81.5,68.9,58.1,65.0,61.1,57.0,98,79,52,29.84,29.71,9,2,9,0.00
2013-8-20,82.6,71.2,62.4,66.0,62.1,59.0,99,76,48,29.90,29.73,13,2,13,0.00
2013-8-21,82.8,70.8,60.4,66.0,61.5,59.0,98,76,46,29.97,29.80,14,2,14,0.00
2013-8-22,81.1,70.9,63.5,67.0,64.4,62.0,99,82,57,29.80,29.57,12,2,12,0.00
2013-8-23,77.7,68.5,55.7,67.0,58.4,49.0,99,74,40,29.90,29.56,12,2,12,0.00
2013-8-24,78.1,63.4,48.9,55.0,49.6,41.0,97,67,30,30.11,29.90,11,1,11,0.00
2013-8-25,77.4,63.6,51.1,58.0,52.2,46.0,97,71,35,30.15,29.94,12,2,12,0.00
2013-8-26,73.5,64.9,60.3,64.0,61.0,55.0,98,89,69,29.95,29.67,12,2,12,0.00
2013-8-27,81.9,69.7,60.3,69.0,63.9,59.0,99,84,56,29.74,29.64,9,1,9,0.00
2013-8-28,79.5,66.3,60.4,66.0,62.7,60.0,98,90,60,29.81,29.68,12,1,12,0.05
2013-8-29,67.3,62.4,55.5,63.0,59.3,54.0,98,91,73,29.92,29.78,11,1,12,0.01
2013-8-30,70.9,61.7,52.0,64.0,57.4,51.0,98,88,65,29.78,29.59,12,2,12,0.22
2013-8-31,78.8,68.0,63.1,70.0,65.5,62.0,99,93,69,29.68,29.56,13,2,14,0.33
2013-9-1,79.7,69.6,64.3,73.0,67.3,63.0,99,94,71,29.77,29.57,11,1,11,0.05
2013-9-2,67.8,64.8,62.1,67.0,64.0,61.0,99,98,98,29.78,29.57,14,1,14,3.41
2013-9-3,73.6,67.3,64.9,72.0,66.5,64.0,99,98,91,29.59,29.51,12,2,12,0.72
2013-9-4,76.0,67.3,61.7,66.0,61.9,57.0,99,85,55,29.69,29.52,11,2,11,0.00
2013-9-5,67.7,59.3,49.6,61.0,53.9,43.0,98,85,42,29.87,29.64,10,1,10,0.50
2013-9-6,66.1,55.6,43.1,54.0,45.9,36.0,97,73,38,30.00,29.81,13,2,15,0.00
2013-9-7,69.6,61.3,55.9,59.0,56.3,52.0,98,85,58,29.82,29.57,16,2,16,0.00
2013-9-8,63.4,58.7,48.7,60.0,54.0,44.0,98,87,51,29.78,29.47,15,2,15,0.39
2013-9-9,63.6,54.5,43.5,57.0,47.1,40.0,97,78,49,29.98,29.78,17,2,17,0.00
2013-9-10,67.0,60.9,57.3,61.0,59.1,56.0,98,94,80,29.93,29.85,14,3,14,0.00
2013-9-11,73.8,65.9,60.1,69.0,64.4,59.0,99,96,85,29.86,29.72,16,2,16,0.05
2013-9-12,77.3,66.4,63.1,72.0,65.3,62.0,99,97,82,29.83,29.49,14,2,17,0.24
2013-9-13,66.6,63.3,58.8,66.0,62.5,58.0,99,98,98,29.49,29.38,13,1,13,0.41
2013-9-14,71.7,61.9,56.1,62.0,58.8,55.0,98,91,64,29.78,29.43,9,1,10,0.00
2013-9-15,65.7,57.7,49.6,56.0,53.0,49.0,97,86,60,29.92,29.77,13,2,13,0.00
2013-9-16,65.1,56.1,45.3,58.0,52.8,36.0,98,90,69,29.96,29.73,16,2,17,0.01
2013-9-17,66.7,52.3,42.0,50.0,43.3,36.0,97,74,43,30.14,29.96,12,2,12,0.00
2013-9-18,69.4,56.6,43.8,56.0,47.9,43.0,97,76,44,30.06,29.85,10,2,12,0.00
2013-9-19,74.8,60.5,47.8,54.0,50.2,47.0,97,72,41,29.92,29.80,10,2,10,0.00
2013-9-20,76.3,61.0,50.4,58.0,53.0,49.0,97,79,44,29.92,29.77,11,1,11,0.00
2013-9-21,67.8,59.9,52.7,61.0,58.2,52.0,98,95,77,29.83,29.61,16,3,18,0.00
2013-9-22,65.3,61.6,55.5,64.0,60.7,53.0,98,98,91,29.61,29.40,28,4,28,0.49
2013-9-23,58.4,52.8,47.1,53.0,46.5,43.0,97,80,63,29.64,29.47,13,3,13,0.00
2013-9-24,53.0,51.3,47.8,49.0,46.1,42.0,97,82,71,29.63,29.54,11,4,13,0.05
2013-9-25,62.2,54.1,50.3,52.0,49.1,47.0,96,84,62,29.70,29.56,14,2,14,0.00
2013-9-26,64.1,55.8,48.9,53.0,50.7,48.0,97,84,63,29.86,29.70,12,2,12,0.00
2013-9-27,74.8,60.1,50.8,56.0,52.8,49.0,97,80,44,30.00,29.86,11,1,12,0.00
2013-9-28,71.4,58.5,47.5,58.0,52.2,46.0,97,83,54,30.14,29.98,7,1,8,0.00
2013-10-1,76.1,65.3,55.1,58.0,52.6,41.0,98,69,30,29.69,29.61,10,1,10,0.00
2013-10-2,75.6,62.4,51.7,62.0,56.1,51.0,98,82,54,29.64,29.55,9,2,9,0.00
2013-10-3,72.0,61.2,50.7,54.0,49.6,44.0,95,69,37,29.85,29.63,11,3,11,0.00
2013-10-4,69.4,57.8,47.3,53.0,49.2,45.0,97,76,46,29.89,29.77,6,2,6,0.00
2013-10-5,61.2,55.0,48.2,51.0,47.8,43.0,97,78,53,29.94,29.85,5,1,5,0.00
2013-10-6,61.1,51.1,40.8,49.0,41.7,35.0,97,73,38,30.08,29.90,9,1,9,0.12
2013-10-7,63.6,58.2,47.8,63.0,57.0,47.0,98,97,92,30.00,29.61,25,5,26,0.05
2013-10-8,63.9,56.0,41.9,63.0,48.6,40.0,98,79,48,30.12,29.61,20,3,20,0.29
2013-10-9,61.7,48.8,38.6,48.0,42.3,38.0,97,81,44,30.26,30.09,7,2,7,0.00
2013-10-10,62.6,51.0,41.4,54.0,46.4,40.0,97,86,46,30.10,29.96,9,2,10,0.00
2013-10-11,70.8,55.5,45.3,55.0,51.0,44.0,97,87,51,29.96,29.90,5,1,5,0.00
2013-10-12,62.1,53.0,43.3,54.0,48.7,42.0,97,87,58,30.19,29.96,8,1,8,0.00
2013-10-13,60.4,49.5,42.4,53.0,43.6,39.0,97,83,47,30.26,30.13,9,1,9,0.00
2013-10-14,59.9,51.2,41.2,52.0,46.7,40.0,97,86,64,30.14,30.02,14,2,14,0.00
2013-10-15,66.3,56.3,48.6,56.0,52.2,48.0,97,88,63,30.08,29.99,8,1,9,0.00
2013-10-16,58.1,54.5,50.1,56.0,53.5,49.0,97,96,91,30.00,29.66,12,1,14,0.02
2013-10-17,58.6,54.7,50.2,57.0,53.8,49.0,98,97,97,29.66,29.51,12,1,12,0.01
2013-10-18,64.1,55.5,49.1,59.0,53.2,48.0,98,93,63,29.56,29.36,19,2,19,0.26
2013-10-19,62.5,53.1,45.7,52.0,47.6,42.0,97,84,50,29.70,29.56,12,2,12,0.00
2013-10-20,61.7,56.4,52.2,57.0,44.8,31.0,97,69,34,29.69,29.43,13,4,15,0.01
2013-10-21,60.5,52.5,48.2,51.0,41.4,35.0,97,68,44,29.82,29.68,12,4,13,0.00
2013-10-22,60.2,55.2,48.3,57.0,52.9,45.0,97,93,82,29.76,29.45,17,3,17,0.01
2013-10-23,54.9,45.8,36.3,45.0,39.7,32.0,97,81,46,29.52,29.31,6,1,7,0.00
2013-10-24,49.7,45.8,37.0,44.0,34.6,28.0,96,66,44,29.52,29.30,21,4,21,0.02
2013-10-25,52.9,45.8,41.8,37.0,34.6,31.0,79,64,48,29.78,29.51,13,4,13,0.00
2013-10-26,51.7,44.5,37.5,43.0,35.5,28.0,96,71,47,29.85,29.62,19,3,19,0.03
2013-10-27,55.4,47.7,42.2,46.0,40.4,33.0,97,77,58,29.69,29.53,12,2,15,0.07
2013-10-28,55.4,45.7,37.3,42.0,35.1,29.0,73,66,50,30.03,29.68,20,4,20,0.00
2013-10-29,49.8,36.5,27.4,32.0,28.0,23.0,95,73,34,30.17,30.02,8,2,8,0.00
2013-10-30,49.1,39.0,29.4,39.0,30.5,24.0,96,74,41,30.04,29.90,11,2,11,0.00
2013-10-31,57.0,44.5,28.8,56.0,41.7,28.0,97,90,64,29.97,29.59,21,3,22,0.33
2013-11-1,61.9,59.0,56.4,61.0,57.8,55.0,98,97,91,29.59,29.15,31,6,33,0.48
2013-11-2,62.4,53.8,44.9,56.0,49.5,44.0,97,87,58,29.48,29.31,10,2,10,0.00
2013-11-3,48.2,38.3,31.7,45.0,27.5,21.0,96,65,41,30.07,29.47,19,2,19,0.07
2013-11-4,43.2,33.2,25.9,26.0,22.9,18.0,94,65,41,30.39,30.07,13,2,13,0.00
2013-11-5,48.7,38.5,25.4,39.0,32.5,24.0,95,80,61,30.43,30.23,12,2,12,0.00
2013-11-6,53.6,49.2,43.2,51.0,45.4,39.0,97,87,78,30.23,29.76,22,3,22,0.00
2013-11-7,57.6,52.0,38.8,57.0,50.9,37.0,97,96,87,29.78,29.39,21,3,25,0.19
2013-11-8,45.5,40.8,38.1,39.0,31.0,28.0,96,67,51,29.63,29.43,17,4,17,0.00
2013-11-9,45.4,37.6,27.6,31.0,27.2,23.0,94,66,43,29.81,29.63,15,4,15,0.00
2013-11-10,49.8,40.7,30.5,47.0,38.7,28.0,97,92,78,29.79,29.39,19,2,19,0.13
2013-11-11,48.0,42.0,37.9,42.0,36.2,31.0,96,80,58,29.70,29.41,16,3,18,0.00
2013-11-12,48.4,36.5,30.2,38.0,27.0,18.0,87,66,58,29.75,29.55,22,5,22,0.00
2013-11-13,36.2,30.7,26.5,23.0,19.7,16.0,78,62,44,29.88,29.72,14,4,17,0.00
2013-11-14,47.2,38.7,31.5,35.0,29.8,21.0,95,70,51,29.78,29.69,14,3,15,0.00
2013-11-15,52.4,41.1,30.5,44.0,35.0,29.0,96,81,45,29.90,29.77,12,2,12,0.00
2013-11-16,51.5,39.7,33.1,45.0,37.5,32.0,96,92,76,30.06,29.88,5,1,5,0.00
2013-11-17,52.9,44.0,31.7,51.0,42.2,31.0,97,93,79,30.08,29.74,21,2,21,0.02
2013-11-18,58.2,52.9,42.9,57.0,51.8,42.0,98,96,86,29.75,29.26,29,4,29,0.02
2013-11-19,48.2,38.6,34.9,45.0,29.2,23.0,97,69,51,29.82,29.28,17,5,19,0.01
2013-11-20,40.2,33.6,29.2,24.0,17.4,11.0,66,50,31,30.30,29.82,20,3,21,0.00
2013-11-21,50.2,36.6,26.4,35.0,24.6,18.0,95,62,30,30.31,30.06,7,1,7,0.00
2013-11-22,43.4,37.8,31.5,35.0,30.0,23.0,93,74,43,30.06,29.47,7,1,7,0.00
2013-11-23,41.9,37.3,30.9,41.0,28.5,18.0,96,70,45,29.47,29.31,18,6,19,0.03
2013-11-24,31.1,24.6,21.3,23.0,15.2,11.0,74,64,55,29.58,29.27,27,8,27,0.01
2013-11-25,30.9,24.2,18.3,21.0,10.9,4.0,74,54,36,29.99,29.58,19,5,19,0.00
2013-11-26,39.9,35.3,28.9,37.0,31.5,18.0,96,86,59,30.02,29.91,17,3,17,0.05
2013-11-27,57.6,51.3,37.3,57.0,50.4,36.0,97,97,95,29.91,28.88,34,6,36,0.60
2013-11-28,43.9,32.0,21.9,43.0,24.8,11.0,96,73,47,30.04,28.98,19,7,19,0.01
2013-11-29,26.5,22.0,18.3,16.0,13.2,11.0,82,65,51,30.40,30.03,12,3,12,0.00
2013-11-30,35.7,23.7,13.3,29.0,17.1,11.0,94,76,46,30.48,30.14,16,2,16,0.00
2013-12-1,41.6,38.1,33.7,40.0,35.7,29.0,96,91,76,30.14,29.82,13,2,13,0.28
2013-12-2,46.4,41.3,35.9,45.0,40.3,35.0,97,96,95,29.80,29.65,16,1,16,0.01
2013-12-3,40.8,38.8,34.8,40.0,37.8,33.0,96,96,95,29.65,29.51,14,1,15,0.01
2013-12-4,43.4,36.3,28.3,36.0,32.4,26.0,95,86,66,29.89,29.52,14,3,16,0.00
2013-12-5,50.2,38.2,25.9,49.0,36.8,24.0,97,95,89,29.98,29.67,15,2,15,0.03
2013-12-6,50.7,44.4,35.7,50.0,43.4,33.0,97,96,83,29.81,29.60,12,2,12,0.10
2013-12-7,38.3,33.0,25.9,36.0,23.6,14.0,95,68,47,30.07,29.75,17,3,17,0.00
2013-12-8,27.4,24.7,21.8,18.0,13.5,8.0,76,59,48,30.28,30.05,9,3,17,0.00
2013-12-9,35.6,27.6,21.0,33.0,21.8,8.0,95,78,53,30.26,29.50,24,2,24,0.11
2013-12-10,34.9,30.6,23.8,33.0,27.8,16.0,95,88,67,29.56,29.39,11,1,12,0.03
2013-12-11,30.4,26.2,21.7,21.0,16.9,14.0,83,67,51,29.79,29.54,20,5,21,0.00
2013-12-12,22.5,16.4,12.4,18.0,6.9,0.0,83,62,42,29.90,29.65,17,4,17,0.00
2013-12-13,24.2,18.4,5.2,16.0,8.5,0.0,80,62,40,30.05,29.56,26,7,26,0.07
2013-12-14,13.9,6.9,-0.4,4.0,-0.7,-6.0,78,63,42,30.30,30.04,14,2,15,0.00
2013-12-15,29.9,18.5,10.2,29.0,17.0,4.0,94,93,75,30.11,29.00,20,3,22,0.00
2013-12-16,23.7,17.1,7.8,21.0,11.4,0.0,93,77,50,29.86,29.31,18,4,18,0.00
2013-12-17,17.1,9.1,-2.5,14.0,4.8,-6.0,93,80,60,29.99,29.70,13,1,15,0.00
2013-12-18,23.9,20.9,15.5,23.0,19.1,14.0,93,93,91,29.70,29.47,8,2,13,0.00
2013-12-19,33.4,30.2,17.5,31.0,28.0,16.0,95,90,83,29.78,29.60,11,2,11,0.00
2013-12-20,40.5,33.4,28.3,40.0,32.2,26.0,96,95,94,29.84,29.61,6,1,6,0.19
2013-12-21,40.4,33.8,31.4,39.0,32.7,29.0,96,95,95,29.68,29.54,7,1,7,0.41
2013-12-22,33.2,31.6,29.6,32.0,30.3,29.0,95,95,94,29.77,29.56,11,1,11,0.53
2013-12-23,32.9,32.1,28.9,32.0,31.2,28.0,95,95,94,29.80,29.66,7,0,7,0.00
2013-12-24,32.7,23.6,13.7,32.0,22.2,11.0,95,94,93,29.82,29.71,12,1,13,0.00
2013-12-25,18.9,12.7,7.6,18.0,11.3,8.0,93,91,84,30.24,29.80,14,2,16,0.00
2013-12-26,34.0,22.6,7.4,33.0,21.1,8.0,95,94,92,30.21,29.72,6,0,7,0.00
2013-12-27,31.3,25.1,16.4,29.0,23.1,14.0,94,92,84,29.88,29.73,9,1,9,0.02
2013-12-28,37.7,30.3,15.9,37.0,28.7,14.0,95,94,86,29.84,29.62,13,2,14,0.15
2013-12-29,40.9,33.8,29.4,40.0,32.6,28.0,96,95,94,29.74,29.18,6,1,6,0.83
2013-12-30,32.7,20.9,6.2,32.0,18.8,4.0,95,90,74,29.84,29.12,15,2,16,0.00
2013-12-31,12.6,5.6,-0.3,8.0,4.6,0.0,92,87,65,29.86,29.70,18,1,18,0.00
2014-1-1,20.2,12.8,1.3,16.0,8.7,0.0,93,78,63,30.09,29.75,15,4,15,0.00
2014-1-2,3.1,-3.7,-6.2,0.0,-4.3,-6.0,92,83,72,30.14,29.63,16,2,16,0.00